sat.trackr.live / text

‹ back to catalog

STARLINK-5456

NORAD 55667 · 2023-021AR

PAYLOAD ACTIVE UNKNOWN

§ Identity

Operator
Country
US
Launch date
2023-02-17
Launch site
AFWTR
Launch vehicle
Mass (kg)
RCS (m²)

Purposes: comms

External: N2YO · Heavens-Above · Gunter

§ Orbital elements

Epoch: 2026-05-24T21:42:15.528096Z

Period
96.11 min
Inclination
69.9989°
Eccentricity
0.0002860
Mean motion
14.98329791 rev/d
Perigee alt
570.1 km
Apogee alt
574.0 km
Semi-major
6,950.2 km
B*
8.2463e-6
RAAN
332.1764°
Arg perigee
270.9330°
Mean anomaly
89.1502°
Rev number
18,069

§ Raw data

STARLINK-54561 55667U 23021AR  26144.90434639  .00000005  00000+0  82463-5 0  99942 55667  69.9989 332.1764 0002860 270.9330  89.1502 14.98329791180699

JSON: /api/v1/satellites/55667 · /tle

For live sub-satellite position, see the globe view (requires WebGL).

§ Visibility from observer

Set your observer location to see the next 7 days of passes ≥ 10°. The values pass through the URL so the page stays shareable.

No JS? Fill the form by hand. The geolocation button needs JavaScript.